sat.trackr.live / text

‹ back to catalog

STARLINK-30876

NORAD 58404 · 2023-180C

PAYLOAD ACTIVE UNKNOWN

§ Identity

Operator
Country
US
Launch date
2023-11-22
Launch site
AFETR
Launch vehicle
Mass (kg)
RCS (m²)

Purposes: comms

External: N2YO · Heavens-Above · Gunter

§ Orbital elements

Epoch: 2026-05-24T20:49:58.323360Z

Period
94.27 min
Inclination
43.0061°
Eccentricity
0.0002022
Mean motion
15.27561072 rev/d
Perigee alt
481.7 km
Apogee alt
484.5 km
Semi-major
6,861.2 km
B*
1.0768e-4
RAAN
342.5837°
Arg perigee
250.9736°
Mean anomaly
109.0897°
Rev number
13,927

§ Raw data

STARLINK-308761 58404U 23180C   26144.86803615  .00002700  00000+0  10768-3 0  99922 58404  43.0061 342.5837 0002022 250.9736 109.0897 15.27561072139279

JSON: /api/v1/satellites/58404 · /tle

For live sub-satellite position, see the globe view (requires WebGL).

§ Visibility from observer

Set your observer location to see the next 7 days of passes ≥ 10°. The values pass through the URL so the page stays shareable.

No JS? Fill the form by hand. The geolocation button needs JavaScript.